Wind_Speed
16 16 17 18 19 18 17 18 18 17 15 14 13 12 13 13 14 16 18 19 19 18 18 18 18 18 18 17 17 17 16 16 15 15 14 14 14 13 13 13 13 13 13 12 12 12 11 10 10 10 9 9 8 8 8 8 8 8 8 7 6 4 2 1 1 1 1 2 3 2 2 1 0 1 1 1 1 1 2 2 2 2 2 2 3
15 16 16 17 18 17 17 18 18 17 16 15 13 13 13 14 14 16 18 19 19 19 18 18 17 17 17 17 16 16 16 15 15 14 14 14 14 13 13 13 13 13 13 13 12 12 11 10 10 10 9 9 9 9 8 8 7 7 7 6 5 3 2 1 1 1 2 2 3 3 3 2 1 0 0 0 1 1 2 2 1 2 2 2 3
17 17 17 17 17 18 18 17 18 18 17 16 15 14 14 15 15 17 18 20 20 19 18 17 17 17 16 16 16 16 16 15 15 14 14 14 14 14 14 14 14 13 13 13 13 12 11 10 10 9 9 10 10 10 9 9 8 7 7 6 5 3 2 1 1 1 2 2 3 4 3 2 1 1 1 1 1 1 1 2 1 2 2 2 2
19 18 18 17 17 18 17 18 18 18 18 18 16 15 16 16 17 18 19 20 20 19 19 17 16 16 16 16 17 16 16 16 15 14 14 14 14 14 14 14 14 14 14 13 13 12 11 10 10 9 9 10 10 10 10 9 8 8 7 6 5 3 2 1 1 1 2 2 3 3 3 3 2 2 1 1 1 1 1 1 1 2 2 2 2
19 19 19 18 18 18 18 18 18 19 19 18 18 17 17 18 18 19 19 20 21 20 18 17 16 16 16 17 17 17 16 16 15 14 14 13 14 14 14 14 14 14 14 13 13 12 11 10 10 10 10 10 11 11 10 9 9 8 7 6 5 3 2 1 1 1 2 2 2 3 3 3 2 2 2 2 1 1 1 1 1 1 1 1 2
20 20 20 19 19 19 19 19 19 19 19 19 18 18 19 19 19 20 20 21 21 20 18 17 16 16 16 17 17 16 16 15 14 13 13 13 13 14 14 14 14 14 14 13 12 12 11 10 10 10 10 11 11 11 10 9 9 8 7 6 4 3 2 1 1 1 1 2 2 2 3 3 3 2 2 2 2 2 1 1 1 1 1 1 1
20 21 21 20 20 19 20 20 19 19 20 20 19 20 20 20 20 20 21 21 21 20 18 17 16 16 16 17 17 16 16 15 14 13 13 13 14 14 14 14 14 14 13 13 12 11 11 10 10 10 10 11 11 11 10 10 9 8 8 6 5 4 2 1 1 1 1 2 1 1 3 2 2 2 3 2 2 2 2 1 1 1 1 1 1
21 22 21 21 21 20 20 20 20 20 21 20 20 21 21 21 20 21 21 21 21 20 18 17 16 16 16 17 17 16 15 14 14 13 13 13 14 14 14 14 14 14 13 13 12 11 11 10 10 10 10 11 11 11 10 10 9 9 8 7 6 4 3 2 1 1 1 1 0 1 2 2 1 2 2 3 3 3 2 2 1 1 1 1 1
21 22 22 22 21 21 21 20 21 21 22 22 22 22 21 21 21 21 22 21 21 20 19 17 16 16 17 17 17 16 15 14 13 13 13 14 14 15 14 13 14 13 13 12 12 11 11 11 10 10 11 11 11 11 10 10 9 9 8 7 6 5 4 2 1 0 0 0 1 1 2 1 1 1 2 2 3 3 3 2 2 2 2 2 1
21 22 22 22 22 21 21 22 22 23 23 23 23 23 22 22 22 22 22 21 21 20 19 18 17 17 17 17 17 16 15 14 14 14 14 14 14 14 14 13 13 13 13 12 12 11 11 11 11 11 11 11 11 12 11 10 9 9 8 8 7 5 4 3 2 1 1 0 0 1 1 2 1 0 1 2 2 3 3 3 2 2 2 2 2
22 22 22 22 22 22 23 23 24 25 25 25 25 24 23 22 22 22 21 21 21 20 20 18 18 18 18 17 17 16 15 14 14 14 14 14 14 14 14 13 13 13 12 12 12 12 11 10 11 11 11 11 12 12 12 11 10 9 8 8 7 6 5 3 2 1 1 1 1 0 1 1 1 1 1 2 2 2 3 3 3 3 2 2 2
23 23 22 23 23 23 24 24 25 26 27 27 26 25 24 23 22 22 22 21 21 20 20 19 18 18 18 17 17 16 16 15 15 14 14 14 14 14 13 12 12 12 12 12 12 12 11 10 10 11 11 11 12 13 12 12 11 10 9 8 8 7 5 4 3 2 1 1 1 1 1 2 2 3 3 2 2 2 3 3 3 3 3 3 3
23 23 23 23 23 24 25 26 27 28 28 27 26 25 24 22 21 22 22 21 21 20 19 19 19 18 18 17 17 16 16 16 15 15 14 14 14 13 13 12 12 12 12 12 12 12 11 10 8 9 11 13 12 12 12 12 11 11 10 9 9 8 6 5 4 3 2 2 2 2 2 2 3 4 3 2 1 2 2 3 3 4 4 4 4
23 24 24 24 24 25 26 27 28 28 28 27 26 25 23 22 21 22 22 21 20 20 20 20 19 19 18 17 17 16 16 16 16 15 14 14 14 13 12 12 12 12 12 12 13 13 12 10 8 8 13 14 12 10 11 11 11 11 11 11 10 9 8 6 4 3 3 2 2 2 3 3 4 4 3 2 1 2 2 3 4 4 4 4 4
24 24 24 24 25 26 27 28 28 28 27 27 26 25 23 22 21 21 21 21 20 20 20 20 20 19 18 18 17 17 17 16 16 15 14 14 14 13 12 12 12 12 12 12 13 13 13 11 9 8 12 11 9 9 11 11 11 11 11 11 11 10 9 7 5 4 3 3 3 3 4 4 4 4 3 3 2 2 2 3 4 4 5 5 5
26 25 25 25 26 27 27 27 27 27 27 27 26 24 23 22 21 21 21 20 20 21 21 21 20 19 18 18 18 17 16 16 15 15 15 15 14 12 12 12 13 13 13 12 13 14 14 13 11 10 10 9 8 10 12 12 11 11 11 11 11 10 9 8 6 5 4 3 3 4 4 5 5 5 4 4 3 3 3 3 4 5 5 6 6
26 25 25 25 26 26 26 26 26 27 27 26 25 24 23 22 22 21 21 21 21 22 21 20 19 19 19 18 18 17 16 17 16 16 16 15 14 12 12 12 13 13 13 12 13 14 14 14 13 13 11 9 10 11 12 14 12 11 11 11 11 10 9 8 7 6 5 4 4 4 5 5 6 6 6 5 5 4 4 4 5 5 5 6 6
26 24 24 25 25 25 26 26 26 27 26 24 23 23 23 23 23 22 21 22 22 22 21 20 19 19 19 19 17 17 17 17 17 17 16 15 13 12 11 12 12 13 13 13 13 14 15 15 14 14 13 12 12 12 15 17 14 11 10 11 11 10 10 10 8 7 7 6 5 5 5 6 6 7 7 6 6 5 5 5 5 6 6 6 6
25 24 25 25 25 25 26 25 25 25 24 23 23 24 24 24 23 22 22 23 23 22 21 19 19 19 19 18 17 17 17 17 17 17 15 13 12 11 12 12 12 12 13 13 14 14 15 16 16 15 14 12 10 12 16 17 15 12 9 10 11 11 11 11 10 9 8 8 7 7 6 7 7 7 8 7 7 6 6 6 6 6 6 6 7
26 26 25 25 26 26 26 26 26 25 24 24 24 24 24 24 23 22 23 23 23 22 20 20 20 20 19 18 18 18 17 17 16 15 14 12 11 12 12 11 11 12 12 13 14 14 15 16 16 15 13 10 9 13 14 14 15 12 10 11 11 13 13 12 11 10 9 9 9 8 8 8 8 8 8 8 8 7 7 7 7 7 6 6 7
27 27 26 27 27 28 28 27 26 26 25 25 24 24 23 23 23 23 23 24 23 22 21 20 20 20 18 18 18 19 18 16 15 13 12 12 12 12 12 11 11 12 12 13 13 13 15 15 15 15 12 11 12 15 15 14 14 12 11 11 12 13 13 13 13 11 10 10 10 10 10 10 10 10 9 9 9 8 8 8 8 8 7 7 7
28 28 28 28 29 30 30 28 28 27 26 25 24 23 23 23 23 23 24 24 23 22 21 21 20 20 19 19 20 19 17 15 13 12 12 12 13 12 11 10 11 11 12 13 13 13 14 15 16 16 14 13 14 16 17 16 14 14 13 12 13 13 13 14 14 12 12 11 11 11 12 12 11 11 11 11 10 9 9 9 9 8 8 7 7
29 29 29 29 30 31 30 30 30 28 26 25 23 21 22 23 23 24 24 24 23 22 22 21 21 20 19 20 20 19 16 14 12 11 12 12 12 12 11 10 11 11 12 13 13 13 14 15 16 16 16 16 15 17 17 16 15 16 16 15 15 14 15 16 15 14 14 13 12 13 13 13 13 12 12 12 11 11 11 10 10 9 9 8 7
29 29 30 30 32 32 31 31 28 26 25 25 23 21 23 23 23 24 24 23 23 22 22 21 21 19 19 20 20 18 15 13 12 11 11 11 11 11 11 10 11 11 12 12 13 13 13 14 15 15 16 17 16 17 16 15 16 16 16 16 15 16 16 17 16 14 15 14 13 13 14 14 14 13 13 13 13 13 12 12 11 10 10 9 8
29 29 30 31 33 32 29 29 26 25 26 27 24 22 23 24 24 24 23 23 22 22 22 21 20 19 19 19 18 17 14 12 11 10 10 11 10 11 11 10 10 11 11 12 12 12 12 12 13 14 15 15 16 17 15 15 15 15 16 15 15 17 17 17 17 15 15 15 14 14 14 15 15 14 13 13 14 14 13 13 12 11 11 10 9
29 30 30 31 33 32 29 26 25 24 25 27 25 23 23 24 24 23 22 22 21 21 20 19 19 19 19 18 17 16 14 12 12 11 11 11 11 11 10 10 10 11 11 11 11 11 11 12 12 12 13 14 16 16 15 14 15 15 15 14 14 15 16 17 17 16 17 15 15 15 16 16 16 14 14 14 14 14 14 14 13 12 12 12 11
29 30 30 31 32 31 28 23 21 21 23 25 26 22 21 23 23 22 21 21 21 20 18 18 19 19 19 19 17 14 14 14 13 12 11 11 11 11 10 10 11 11 10 11 11 10 10 11 11 12 13 14 15 15 14 14 14 14 14 14 14 14 16 18 18 17 18 16 15 16 16 17 16 15 15 15 15 14 15 14 14 13 13 13 13
29 28 27 29 29 27 25 21 20 23 25 25 26 22 19 20 20 20 21 21 20 18 18 18 18 18 17 17 15 13 14 15 14 12 11 12 11 11 11 11 10 10 10 10 10 9 9 10 10 11 13 13 13 12 11 11 12 12 13 14 13 14 17 18 18 18 18 17 16 16 17 17 16 15 15 15 15 15 15 14 14 13 13 14 13
27 25 24 24 24 23 25 25 25 28 28 25 24 22 20 19 19 20 20 19 18 17 18 17 17 17 15 15 15 15 16 16 14 12 11 11 11 11 11 11 10 10 10 10 10 10 9 9 9 11 12 11 11 11 10 10 10 10 12 12 11 13 16 16 18 19 18 17 16 16 17 16 16 15 15 15 15 16 15 14 14 14 14 14 14
25 24 24 23 21 21 26 28 28 29 28 25 24 21 20 18 18 19 18 18 17 17 17 17 17 17 15 15 15 14 14 13 12 13 12 11 11 11 11 10 10 10 10 10 11 10 9 9 9 9 9 9 9 9 9 8 8 8 10 11 11 12 14 15 18 20 18 17 18 17 16 16 15 15 15 15 15 15 15 14 14 14 13 14 14
24 25 26 26 23 23 26 26 27 29 28 28 26 22 20 18 18 18 17 17 17 17 17 15 15 15 14 14 14 13 12 11 13 15 13 12 12 11 11 10 10 9 9 9 9 8 8 8 8 8 8 8 8 8 8 8 8 8 8 9 11 12 13 15 18 19 17 16 18 18 16 16 14 14 14 14 15 14 14 14 14 13 13 13 14
24 25 26 28 27 26 27 26 28 30 28 28 27 23 21 19 18 18 18 18 18 17 17 16 15 14 13 13 13 12 12 14 17 16 14 13 13 12 12 10 10 9 8 8 7 7 8 7 7 7 7 6 6 6 6 7 7 8 9 9 10 12 12 15 17 17 17 15 17 18 16 15 14 13 13 13 12 12 13 13 13 13 13 13 13
25 26 27 28 27 29 30 29 29 29 27 26 25 23 22 20 20 19 19 20 20 19 17 14 13 14 14 13 13 13 14 17 18 16 14 14 13 12 12 11 10 9 8 8 7 7 7 7 6 6 6 5 5 5 6 7 7 8 9 9 11 12 12 14 16 16 17 15 15 16 14 12 12 12 11 10 10 10 11 12 12 12 13 13 13
25 26 27 27 26 29 32 32 30 27 25 25 24 24 23 21 20 20 20 21 20 18 15 12 12 14 16 15 14 15 15 16 16 15 15 14 13 12 12 11 10 10 9 8 7 7 7 6 6 5 5 5 5 6 6 7 8 8 9 9 11 12 12 13 15 16 15 12 12 12 10 8 8 8 8 8 8 9 10 11 11 11 12 12 11
24 27 28 27 27 29 32 32 29 27 26 25 25 24 23 20 20 22 22 22 20 16 14 14 15 16 17 16 15 15 15 15 15 14 14 14 13 13 12 11 11 10 9 8 7 7 6 6 5 5 5 6 6 6 7 7 8 9 9 10 11 12 11 12 14 14 12 10 8 7 6 5 5 6 5 6 7 8 9 10 10 10 11 10 10
22 26 27 27 27 27 28 29 26 27 28 27 25 22 21 20 20 22 22 20 19 17 17 17 17 18 18 17 16 15 15 14 14 14 14 14 13 13 12 12 11 10 9 8 7 7 7 6 6 6 6 6 7 7 7 7 8 9 9 10 11 11 11 12 13 12 10 9 8 7 6 5 5 6 5 6 8 8 9 9 10 10 10 9 9
21 23 24 25 25 23 24 25 22 24 26 27 26 22 19 19 20 21 20 18 18 18 19 18 18 18 17 17 16 16 16 14 14 14 14 14 13 13 13 12 11 10 9 8 8 8 7 6 6 6 7 7 8 8 7 7 8 9 9 10 11 10 10 12 13 10 8 7 6 6 6 5 5 6 5 6 7 7 8 9 9 9 9 8 8
19 21 22 21 21 20 22 24 21 21 23 25 25 21 19 19 20 20 17 16 18 18 19 20 18 16 17 17 17 17 16 15 14 14 13 13 13 13 13 12 11 10 9 9 9 8 7 7 7 7 8 9 9 9 8 7 7 8 9 10 11 10 9 12 11 8 6 5 4 5 5 4 5 3 2 3 4 4 6 8 8 8 8 8 8
18 20 17 13 13 18 21 22 23 23 24 24 22 19 18 19 19 18 16 17 18 19 20 19 17 17 17 17 17 17 16 15 14 13 13 13 13 13 13 12 11 10 10 9 9 9 8 8 8 9 9 10 10 9 7 7 7 7 8 9 9 8 8 11 11 6 4 4 3 3 5 5 5 2 2 3 2 2 3 5 5 5 6 6 6
17 17 12 7 10 17 20 21 23 24 23 22 20 18 18 19 19 17 17 18 20 21 20 19 18 16 16 16 17 17 16 15 14 13 13 12 13 13 12 12 11 11 10 10 10 10 10 9 9 10 10 10 10 9 7 7 7 7 7 8 9 8 8 9 9 5 2 2 1 2 4 6 4 3 4 4 1 1 1 1 2 2 3 3 4
14 12 10 8 11 16 19 22 22 21 20 20 19 17 18 19 20 19 19 20 22 21 20 18 17 16 16 17 18 16 15 14 14 13 13 12 13 12 12 12 12 12 12 11 11 11 11 11 11 10 10 10 9 8 7 7 7 7 7 8 9 9 7 6 6 5 3 2 2 2 3 5 4 4 4 3 2 1 2 1 1 1 1 2 3
13 10 10 11 11 15 20 22 21 20 19 19 19 19 20 20 21 21 20 21 21 21 20 18 17 17 18 20 17 16 15 14 14 14 13 13 13 13 12 12 12 13 13 13 13 12 12 12 11 11 11 10 9 8 7 8 8 7 7 8 9 9 7 6 5 5 4 2 2 2 3 4 3 3 3 2 2 1 3 3 2 2 1 2 3
12 9 10 12 12 14 18 19 20 20 19 20 21 21 22 21 21 20 20 21 20 19 19 18 18 18 19 18 17 16 15 14 14 14 13 13 13 13 12 12 13 13 13 14 14 13 13 13 12 11 11 10 9 8 7 8 8 8 8 9 9 9 8 8 7 6 5 3 2 2 3 4 2 2 2 1 2 2 3 3 2 2 2 3 3
11 9 10 14 15 17 18 19 21 21 21 22 22 21 22 22 21 20 19 20 19 18 17 17 19 19 17 17 17 16 15 15 14 13 13 14 14 14 13 13 13 14 14 14 15 15 14 13 12 11 11 11 9 8 8 8 8 9 9 9 9 9 9 10 9 7 7 5 4 3 4 4 3 3 3 3 3 2 2 1 0 1 3 4 4
13 12 12 15 17 19 21 22 25 25 23 23 23 21 22 22 21 19 18 19 19 17 16 17 19 18 17 18 18 16 16 15 14 13 14 14 14 14 14 14 14 14 15 15 15 15 14 13 13 12 12 11 10 9 9 9 9 9 10 9 9 9 9 10 8 8 8 7 5 5 5 5 5 5 5 4 4 4 4 3 2 3 4 5 5
15 14 15 18 20 21 24 26 28 28 25 24 25 23 22 22 22 20 19 19 18 16 16 17 18 19 18 18 18 17 16 15 14 14 14 15 14 14 14 14 15 15 16 16 15 14 14 14 13 13 12 11 11 10 10 10 10 11 11 10 10 10 10 10 9 9 9 8 7 6 6 6 6 7 7 6 6 6 6 5 5 5 5 5 6
17 18 20 23 25 25 26 26 26 27 25 24 23 23 22 23 24 22 20 19 19 18 17 17 19 20 18 17 17 17 16 15 14 14 15 15 15 15 15 15 16 16 16 15 14 14 14 14 14 13 12 12 12 12 11 11 11 12 12 11 12 11 10 10 10 10 10 9 9 8 7 7 7 8 8 8 7 7 7 7 6 6 6 6 6
21 24 26 27 27 27 26 24 22 24 25 23 22 23 22 23 24 22 21 21 20 19 20 21 21 20 17 16 17 16 16 15 15 15 14 14 15 15 15 16 16 16 15 14 14 14 14 14 13 13 12 13 13 12 12 11 11 12 13 13 12 12 11 11 11 11 10 9 9 9 9 8 8 8 8 9 8 8 8 8 8 7 7 7 8
26 27 28 28 26 25 25 22 21 24 24 23 23 22 22 24 23 21 21 23 21 20 22 23 22 20 17 17 17 16 16 16 15 14 14 14 15 15 16 16 16 15 14 13 13 13 13 13 13 14 14 13 14 13 12 12 12 12 13 13 13 13 12 11 11 10 10 9 9 9 9 8 8 8 9 9 10 10 9 9 9 8 8 9 9
31 32 32 29 27 28 29 27 25 24 23 24 23 20 21 24 23 22 22 23 22 22 23 24 22 19 18 18 18 16 16 16 14 14 13 14 15 16 16 16 15 14 13 13 13 13 13 14 14 15 15 14 15 15 14 13 13 13 13 13 13 13 13 12 11 10 9 9 9 9 9 8 8 8 8 9 10 10 10 10 9 9 9 9 9
38 37 34 29 29 31 29 28 28 26 24 25 23 20 21 23 23 24 24 23 22 22 24 24 21 18 17 18 17 16 15 14 13 13 13 14 15 16 16 15 14 13 13 13 13 13 14 14 15 16 16 16 16 16 15 14 14 13 13 13 13 14 13 13 12 10 10 11 10 9 9 9 9 8 9 9 10 10 10 10 10 9 9 9 8
Wind_Direction
264 260 257 257 259 262 266 269 271 272 274 280 288 294 300 307 311 315 316 321 327 329 326 322 320 319 320 323 326 326 327 326 323 320 318 316 317 319 321 324 326 329 329 331 333 334 335 332 331 328 327 326 324 326 328 331 334 339 340 341 343 348 358 15 38 79 83 81 78 77 76 74 51 347 314 277 266 273 276 283 306 318 338 5 5
259 255 254 253 255 258 262 266 269 270 273 279 287 293 299 305 310 314 315 320 325 329 327 323 322 320 322 324 326 327 327 324 321 319 318 317 318 321 323 325 327 331 333 334 333 333 332 330 328 326 324 323 321 321 321 324 328 334 337 341 343 347 2 43 75 85 91 90 89 84 79 82 101 92 59 289 269 266 273 280 300 320 337 3 360
252 247 247 247 250 254 259 262 266 269 273 278 285 292 298 303 308 311 315 319 323 326 325 323 322 321 323 323 325 326 325 323 320 319 319 319 321 324 325 327 330 333 335 335 333 332 330 327 324 321 321 319 318 317 317 319 323 330 336 341 347 353 2 37 72 82 81 85 94 93 88 89 93 97 120 154 213 244 279 295 309 321 337 360 359
253 246 245 244 248 253 256 259 263 267 271 278 283 291 296 301 305 309 313 318 321 322 321 320 320 320 321 322 323 323 323 321 320 320 319 321 324 327 327 328 331 334 336 335 332 329 326 323 320 318 317 317 315 314 315 317 321 327 337 344 351 358 2 26 54 76 73 73 95 103 105 106 108 119 141 149 167 216 265 295 306 319 335 353 350
253 247 246 244 248 251 255 257 260 265 269 276 281 288 293 298 302 306 311 315 318 318 317 316 317 318 319 319 320 321 321 319 318 319 319 322 325 328 329 328 330 334 336 334 331 327 323 319 316 315 314 314 313 313 314 316 320 327 338 347 355 1 3 23 48 64 71 68 89 106 116 120 121 130 140 143 155 187 211 280 303 309 322 335 328
253 249 248 246 249 251 254 257 259 263 268 274 280 286 290 295 298 304 308 312 314 315 314 312 313 314 315 316 317 318 319 317 316 317 319 322 325 329 329 328 330 334 335 333 329 325 322 318 314 311 310 310 310 311 312 314 320 327 335 346 358 6 7 15 64 77 79 66 76 107 119 123 125 130 135 145 159 178 183 198 229 249 282 299 309
255 252 251 250 251 252 254 257 258 261 267 273 279 284 289 292 296 301 304 307 310 311 310 307 309 309 310 312 314 316 316 314 313 315 319 322 325 328 329 328 329 332 333 331 326 323 320 316 311 308 306 306 307 310 311 313 318 326 334 344 356 6 11 6 37 57 70 64 58 98 104 111 119 131 141 152 163 173 178 183 205 222 253 280 293
253 252 253 252 253 252 253 255 258 262 268 273 279 284 287 289 293 297 300 303 305 306 305 303 303 304 306 308 311 314 314 311 310 313 317 322 324 326 328 327 328 330 330 327 324 321 318 313 308 304 303 304 306 309 312 314 318 326 334 343 354 1 8 14 31 64 58 46 360 63 78 84 93 139 155 163 172 172 173 180 192 205 229 254 269
253 253 252 251 251 251 252 254 259 264 269 274 279 282 285 287 290 293 296 298 300 302 300 298 298 300 302 306 310 311 310 307 307 311 315 321 324 325 327 326 326 327 327 324 320 317 314 308 303 301 302 304 307 309 313 317 320 325 333 341 352 357 2 6 360 76 62 22 21 53 60 55 68 152 170 174 180 175 170 174 184 194 211 223 240
253 252 251 249 249 251 253 256 261 266 271 276 280 282 284 286 288 289 292 294 297 298 295 293 294 297 300 305 308 307 306 304 305 309 314 320 323 325 325 325 324 324 324 321 317 313 308 303 300 300 302 305 308 311 313 316 320 323 330 337 347 356 358 356 360 19 345 216 93 64 54 29 19 356 201 201 195 185 180 177 183 191 207 218 231
253 251 249 248 250 252 255 259 264 270 275 278 280 282 284 285 286 286 288 290 292 292 290 289 291 294 298 303 304 304 303 302 304 307 314 318 321 323 322 322 321 322 321 316 312 307 303 299 298 299 301 307 310 312 313 313 316 319 323 331 340 350 353 351 3 2 299 224 173 157 13 357 337 305 272 254 226 207 202 197 195 194 204 215 230
254 253 251 252 254 256 259 263 268 274 278 280 280 282 284 284 284 283 284 285 286 285 285 285 288 292 296 300 300 300 300 300 302 306 313 316 319 319 318 317 318 318 315 311 305 300 298 296 298 302 304 309 311 311 312 312 313 314 315 322 330 339 345 348 350 330 275 233 218 228 306 316 303 284 275 273 257 236 229 221 214 208 208 213 221
257 255 255 257 259 261 263 267 272 276 279 280 280 281 282 282 281 281 281 281 281 280 280 282 285 288 292 296 296 297 297 299 301 305 310 313 316 315 313 312 312 312 309 305 298 293 291 291 298 308 310 305 306 310 311 313 312 311 312 316 324 330 338 341 336 319 285 254 238 240 262 282 281 275 275 279 275 257 250 241 234 227 223 221 221
258 256 258 260 262 265 268 270 274 277 278 279 279 280 281 280 279 279 278 276 275 275 276 278 281 285 289 292 293 295 295 297 299 303 307 309 311 309 308 306 306 307 303 299 293 287 283 282 284 307 318 300 290 308 313 313 313 310 310 313 318 322 327 332 328 316 294 277 260 254 255 263 269 273 280 283 280 265 258 252 244 239 237 233 229
257 258 261 263 266 268 270 272 275 276 276 277 278 278 277 276 276 277 274 271 269 268 270 273 277 283 287 289 290 291 292 294 296 299 303 303 304 304 302 300 301 301 298 294 287 282 276 273 267 289 326 311 285 307 311 309 313 314 312 311 314 317 319 322 320 311 293 281 271 267 265 265 267 272 280 280 278 272 261 256 250 245 241 239 236
258 260 264 266 268 270 272 273 274 275 274 275 276 275 273 272 273 273 269 265 262 262 266 270 275 281 284 286 286 287 289 289 292 295 298 299 299 299 297 295 297 297 296 290 281 277 271 269 262 266 310 326 303 304 304 305 312 317 316 311 311 313 314 314 314 309 293 279 270 266 267 268 272 274 277 278 275 274 268 262 256 250 246 242 241
260 263 266 267 269 271 272 273 274 274 273 274 273 271 268 267 268 268 264 259 256 259 263 268 274 278 280 281 282 283 284 286 288 291 293 295 295 294 292 293 294 293 291 286 277 272 268 266 263 261 275 297 296 297 303 305 307 313 315 310 310 310 311 313 309 308 299 289 278 265 262 264 269 273 274 277 277 276 274 272 267 258 251 246 244
263 264 266 268 270 272 274 275 276 274 273 272 268 265 263 264 265 264 259 254 254 257 262 268 273 276 277 279 279 279 280 283 286 287 289 290 290 288 289 291 290 288 285 281 275 269 267 266 266 261 264 277 282 291 306 310 303 300 309 307 308 310 311 313 309 306 301 294 287 278 272 268 268 270 272 274 276 277 276 274 272 269 261 254 250
264 266 267 270 273 274 275 277 275 272 271 269 264 261 261 261 262 259 254 252 253 257 263 268 272 274 276 276 276 276 279 281 284 285 286 287 286 286 287 286 281 279 276 274 273 269 268 269 267 263 266 270 277 298 313 321 311 290 296 303 304 310 312 311 307 302 299 295 292 287 282 277 273 271 271 271 273 274 274 273 273 272 269 263 257
267 269 272 273 274 274 275 275 272 271 270 267 263 260 259 259 258 255 252 251 254 259 264 268 270 272 273 274 274 275 277 279 281 282 283 283 284 285 282 279 272 267 266 267 270 272 271 269 266 263 262 260 284 311 314 323 321 295 287 302 305 309 310 307 303 299 296 293 291 288 284 281 278 275 273 271 271 271 272 273 272 272 271 268 265
271 273 274 275 275 275 276 276 274 271 267 264 260 257 255 255 253 251 250 251 255 259 263 266 268 270 270 271 272 273 274 274 277 279 280 282 284 283 276 270 263 258 258 261 266 270 271 269 266 262 257 258 286 309 298 297 315 306 292 303 307 306 306 302 299 296 292 288 286 284 282 281 278 276 273 270 268 268 269 270 272 272 270 268 267
272 274 275 277 278 279 279 279 275 268 262 259 255 253 252 251 249 248 249 251 255 259 263 265 266 268 268 268 270 272 272 268 271 275 279 283 284 280 271 262 255 251 252 256 260 264 267 268 268 266 259 259 280 298 291 285 298 302 299 302 301 300 299 297 296 293 288 283 281 280 280 279 278 276 274 272 269 267 266 266 269 271 271 270 267
273 276 279 280 280 280 278 276 270 261 257 254 250 248 248 248 247 247 249 252 256 260 263 265 267 267 266 267 269 271 270 265 268 274 279 283 283 278 269 257 249 246 247 250 255 258 263 268 272 272 265 264 279 292 292 287 287 289 291 293 292 292 293 294 295 290 284 280 277 278 278 277 277 277 276 273 271 268 266 265 265 267 269 270 270
277 279 280 279 278 277 275 271 261 252 249 245 241 243 244 244 245 246 249 253 256 261 263 266 267 265 266 267 267 268 265 266 273 276 281 283 280 276 267 254 244 240 241 246 251 254 260 268 276 278 274 274 284 292 291 288 287 283 282 286 287 289 293 294 293 287 279 277 275 275 276 276 275 274 274 272 271 269 267 266 264 264 266 267 269
279 279 278 278 277 272 271 268 254 246 241 231 228 235 239 239 242 245 248 252 256 260 263 265 265 262 264 265 267 268 261 266 279 282 285 284 277 271 262 250 241 238 239 242 247 254 259 270 279 282 282 284 288 290 290 288 286 284 283 286 286 291 297 297 295 288 278 274 271 273 273 273 272 270 270 269 269 268 267 267 266 266 267 266 268
276 276 277 279 278 271 269 264 250 245 236 226 226 230 233 236 242 245 248 252 255 259 262 261 261 262 265 266 268 266 262 275 286 286 286 286 280 270 258 248 241 237 237 239 244 252 260 271 277 279 279 281 285 287 288 288 285 285 287 288 287 293 301 299 296 288 280 276 271 270 269 269 270 270 269 267 266 266 266 266 266 267 266 266 266
275 279 281 282 284 274 262 251 241 238 232 233 234 231 232 236 242 245 247 251 254 258 261 261 263 265 267 267 265 261 269 284 287 284 284 286 283 272 260 249 241 236 235 238 241 247 258 266 269 271 274 278 283 285 287 288 288 288 291 296 292 293 303 304 299 287 281 279 273 269 268 268 270 269 266 265 265 264 264 264 264 265 264 265 267
276 283 285 282 283 272 251 245 245 239 236 238 234 233 239 237 239 243 245 250 254 259 261 262 265 266 267 267 264 266 275 283 282 277 279 283 280 272 263 252 243 238 235 233 233 240 251 257 262 270 275 279 282 284 287 289 293 294 295 300 298 296 303 307 300 287 282 282 278 274 272 271 271 268 265 263 263 263 262 262 262 263 263 264 266
277 282 284 279 276 261 245 251 254 244 239 236 232 239 243 236 240 245 246 251 254 259 262 264 265 262 262 264 265 269 275 280 275 267 274 280 276 271 263 254 247 243 238 234 232 239 245 252 263 272 272 274 278 283 290 295 300 301 298 299 305 303 301 306 300 285 282 285 282 277 275 275 273 270 267 263 261 261 262 262 262 260 260 262 264
280 280 278 278 274 258 249 253 253 247 242 234 234 242 242 240 247 249 248 253 254 258 262 264 266 263 257 260 266 270 274 274 263 263 279 282 275 270 260 254 252 249 247 243 238 240 245 256 266 268 265 268 274 282 290 299 302 304 304 302 304 305 301 303 296 283 281 286 284 281 279 277 275 271 268 264 261 261 262 261 261 260 260 261 263
282 278 274 275 273 264 258 256 253 249 243 235 234 235 237 244 251 253 252 252 255 259 263 265 266 260 251 256 266 272 275 267 259 270 283 279 271 264 256 254 254 253 253 248 242 244 252 261 261 254 255 261 270 281 292 299 303 303 305 307 301 301 305 299 288 283 288 292 286 282 278 275 273 270 267 265 263 261 259 259 259 261 260 260 260
274 273 274 277 271 265 262 259 253 246 241 238 234 232 236 242 247 251 253 254 258 261 264 267 260 250 247 256 264 267 268 263 265 273 276 270 264 257 254 254 253 252 252 249 246 252 258 255 246 241 248 258 269 283 292 296 304 303 301 310 305 302 305 296 290 293 295 293 287 282 280 277 275 272 267 264 262 259 257 257 259 261 261 259 258
270 271 276 277 266 262 261 258 253 243 237 236 237 240 241 240 242 245 250 256 261 260 259 259 247 243 253 262 265 264 261 261 266 270 267 263 257 253 254 253 254 256 255 252 252 254 251 240 233 238 247 260 273 283 290 294 302 304 302 308 309 306 302 298 301 300 294 295 297 290 288 284 278 275 271 265 259 253 250 251 256 259 258 257 256
271 272 277 273 263 266 262 252 248 240 233 239 245 246 240 237 242 246 250 254 258 259 255 247 243 252 264 266 264 264 263 263 266 266 263 258 254 253 253 255 259 260 259 257 253 245 237 230 230 239 252 265 276 283 287 292 297 302 308 311 310 310 308 306 305 298 297 309 309 300 299 291 284 281 276 268 255 246 244 246 250 253 253 254 255
273 271 273 268 267 274 264 246 240 235 237 249 250 242 236 237 245 250 251 252 255 257 253 250 252 260 265 264 262 262 263 264 263 262 260 256 253 252 252 257 260 261 261 256 248 238 230 230 234 243 257 269 277 281 282 288 294 301 310 313 311 312 312 309 303 300 308 319 317 319 325 309 302 301 290 270 251 241 240 240 243 246 248 250 253
273 270 271 269 270 273 259 241 235 234 240 248 243 234 234 238 243 250 252 252 252 255 255 254 253 255 259 260 259 257 257 258 259 257 256 253 251 252 256 259 259 259 258 251 244 238 234 235 240 254 267 276 280 280 282 288 295 300 307 312 311 313 314 310 307 309 313 320 326 334 335 325 317 314 306 273 250 241 238 236 236 238 241 244 250
269 268 270 270 268 263 247 236 231 231 236 240 237 233 237 238 238 245 249 249 252 254 255 252 251 252 254 256 255 256 257 256 255 253 252 252 250 254 258 258 258 257 253 248 243 241 241 244 252 268 278 284 283 282 285 289 294 302 308 312 311 312 315 311 313 316 310 318 337 336 335 341 333 328 321 288 260 240 233 233 231 230 234 241 251
263 261 266 267 262 249 234 227 224 229 236 238 236 235 238 238 235 239 243 246 250 252 253 253 252 251 250 252 254 257 258 255 252 249 248 249 250 254 256 256 258 255 250 246 244 246 248 255 267 278 285 287 285 284 287 289 293 301 305 308 306 308 313 313 319 321 301 307 334 331 332 331 324 334 22 332 290 249 238 235 229 226 230 238 251
257 253 261 271 254 235 225 222 224 230 236 238 238 233 234 238 237 237 241 246 248 250 251 251 254 252 243 245 254 258 258 254 251 247 243 243 249 253 254 255 257 252 250 248 248 251 254 261 272 279 286 287 284 284 286 287 289 293 297 299 301 308 318 317 323 327 296 296 325 326 323 318 323 2 48 1 327 252 249 235 219 216 225 241 258
254 247 254 271 243 227 221 222 226 229 232 235 238 234 233 239 240 240 244 246 248 249 247 246 252 246 232 242 258 260 258 256 251 246 241 241 245 248 250 254 253 251 252 252 252 254 257 263 271 279 284 283 282 283 284 284 282 284 289 293 298 305 312 313 320 327 289 273 294 302 307 306 317 343 340 346 23 104 327 218 200 218 231 256 273
252 245 245 248 234 227 225 228 231 231 228 230 236 239 239 243 243 242 244 244 245 245 243 243 241 231 235 256 264 260 258 255 249 245 241 239 241 244 248 251 252 252 252 253 255 257 260 265 272 279 283 281 279 278 278 277 274 276 280 285 292 295 298 303 308 313 290 275 279 270 288 296 305 326 332 353 67 76 29 37 347 306 290 311 308
246 245 240 239 233 229 231 234 233 227 223 229 236 240 241 242 243 240 238 241 241 238 239 239 233 233 248 260 260 257 256 252 249 246 240 237 240 244 246 249 251 253 253 254 257 260 264 268 273 278 282 281 277 273 274 271 270 274 277 283 287 284 287 293 296 299 290 290 304 290 287 285 296 320 324 353 33 30 31 39 11 342 6 360 343
242 248 242 238 234 231 232 231 228 221 222 232 236 239 241 240 242 241 238 240 238 236 237 237 236 240 248 253 256 257 255 252 251 246 241 238 239 244 248 251 254 254 255 257 260 262 265 268 273 278 280 278 272 269 268 268 273 281 284 285 283 280 280 282 284 283 275 269 289 307 290 279 296 309 290 332 358 360 20 43 37 347 350 350 346
238 248 244 237 232 231 233 233 233 228 227 234 235 237 241 241 243 243 240 238 235 236 238 236 237 237 242 252 257 258 255 255 253 247 243 240 240 244 248 252 255 257 259 260 262 263 264 268 274 277 277 272 269 267 264 267 275 282 286 286 285 283 279 276 274 271 268 267 271 273 258 255 280 294 284 301 312 312 329 353 329 288 310 315 321
238 245 241 235 229 228 232 236 241 239 234 238 240 240 240 240 242 239 235 234 232 233 232 232 233 232 244 258 258 256 256 255 253 249 245 242 243 245 248 253 257 261 263 263 263 264 265 269 273 274 272 271 269 267 265 270 276 282 288 289 286 283 278 275 272 265 266 270 266 257 250 251 261 271 278 284 285 289 291 287 277 276 282 289 300
236 237 232 231 226 222 224 229 237 241 240 240 241 242 238 237 241 238 235 234 232 233 229 230 232 234 250 262 258 257 257 256 254 249 244 243 244 246 251 256 260 263 263 262 263 263 265 268 271 272 271 270 269 269 268 271 278 284 287 285 280 278 275 276 276 268 266 266 262 253 251 259 263 269 274 274 274 277 277 277 278 279 281 284 289
227 224 223 226 225 225 226 229 235 239 241 241 243 244 239 238 240 239 240 238 237 239 236 238 240 241 253 262 259 259 259 258 254 248 245 244 245 249 255 260 263 263 260 259 258 259 262 265 269 271 271 270 269 269 268 271 279 284 286 285 280 278 273 272 273 270 266 262 262 259 256 260 264 270 272 269 269 269 270 275 277 282 288 290 291
223 217 217 221 226 230 232 234 241 243 243 244 247 247 242 244 244 242 243 243 241 240 241 244 239 239 255 264 261 261 259 257 253 248 246 245 247 253 259 262 263 260 258 256 255 257 262 268 273 276 273 272 272 269 268 273 280 283 286 284 280 277 272 268 266 265 264 263 263 265 264 265 268 271 271 270 272 273 274 278 284 290 294 294 296
224 218 220 228 234 238 236 234 240 245 246 248 251 253 249 249 251 247 245 244 243 243 245 242 232 237 258 264 260 259 257 255 252 248 248 248 251 256 259 261 259 257 255 254 256 262 269 276 280 280 277 274 273 271 272 276 278 280 283 278 274 274 269 266 266 261 261 265 267 266 263 264 268 272 276 278 280 280 283 286 289 291 291 293 296
231 229 233 238 241 244 242 238 238 239 242 247 253 262 258 252 254 253 248 247 248 250 246 234 227 240 257 259 258 256 253 253 249 246 247 250 255 258 259 257 255 253 252 254 260 267 275 280 282 281 279 275 272 271 271 274 275 278 279 276 274 273 267 266 265 259 260 267 270 269 266 266 269 272 277 281 283 284 285 285 287 288 289 292 294
237 237 240 241 243 246 242 236 237 237 241 249 253 261 261 256 255 253 250 252 252 250 242 229 230 248 256 257 258 254 248 246 242 241 246 253 258 258 256 254 251 251 253 257 263 270 275 278 279 279 278 274 271 270 270 273 277 278 276 272 270 268 264 262 260 260 265 268 266 266 270 274 277 278 277 279 282 284 284 286 288 290 291 292 294
Height
5863 5863 5863 5864 5863 5864 5864 5864 5863 5863 5863 5863 5862 5862 5862 5861 5861 5860 5859 5859 5859 5858 5858 5857 5856 5855 5855 5854 5853 5852 5851 5850 5850 5849 5848 5847 5847 5846 5845 5845 5844 5843 5843 5842 5842 5841 5840 5840 5839 5839 5838 5838 5837 5837 5836 5836 5835 5835 5834 5834 5834 5833 5833 5833 5833 5833 5833 5833 5833 5833 5833 5834 5834 5834 5835 5835 5836 5836 5836 5836 5836 5837 5837 5837 5837
5862 5862 5862 5862 5862 5863 5862 5862 5862 5862 5862 5862 5861 5861 5861 5860 5860 5859 5858 5858 5858 5857 5857 5856 5855 5854 5854 5853 5852 5851 5850 5849 5849 5848 5847 5846 5846 5845 5844 5844 5843 5843 5842 5841 5841 5840 5840 5839 5839 5838 5838 5837 5837 5836 5836 5835 5835 5835 5834 5834 5833 5833 5833 5833 5833 5833 5833 5832 5832 5833 5833 5833 5834 5834 5835 5835 5835 5836 5836 5836 5836 5837 5837 5837 5837
5859 5860 5860 5860 5861 5861 5861 5861 5861 5861 5861 5861 5860 5860 5860 5859 5859 5858 5857 5857 5857 5856 5856 5855 5854 5853 5853 5852 5851 5850 5849 5848 5847 5847 5846 5845 5844 5844 5843 5843 5842 5842 5841 5840 5840 5839 5839 5838 5838 5838 5837 5837 5836 5836 5835 5835 5835 5834 5834 5833 5833 5833 5833 5833 5833 5833 5832 5832 5832 5832 5833 5833 5833 5834 5834 5835 5835 5836 5836 5836 5836 5837 5837 5837 5837
5857 5858 5858 5859 5860 5860 5860 5860 5860 5860 5860 5860 5859 5859 5859 5858 5858 5857 5856 5856 5856 5855 5855 5854 5853 5853 5852 5851 5850 5849 5848 5847 5846 5846 5845 5844 5843 5842 5842 5842 5841 5841 5840 5840 5839 5838 5838 5838 5838 5837 5837 5836 5836 5835 5835 5834 5834 5834 5833 5833 5833 5833 5833 5833 5833 5833 5832 5832 5832 5832 5833 5833 5833 5834 5834 5835 5835 5835 5836 5836 5836 5836 5837 5837 5837
5856 5856 5857 5858 5858 5858 5859 5859 5859 5859 5859 5858 5858 5858 5858 5857 5857 5856 5855 5855 5855 5854 5854 5853 5852 5852 5851 5850 5849 5848 5847 5846 5845 5845 5844 5843 5842 5841 5841 5841 5841 5840 5840 5839 5839 5838 5838 5837 5837 5837 5836 5836 5836 5835 5834 5834 5833 5833 5833 5833 5833 5832 5832 5833 5832 5832 5833 5832 5832 5832 5833 5833 5833 5834 5834 5835 5835 5835 5835 5836 5836 5836 5837 5837 5838
5855 5855 5855 5856 5857 5857 5857 5858 5858 5858 5857 5857 5857 5857 5857 5856 5856 5855 5854 5854 5854 5853 5853 5852 5851 5851 5850 5849 5848 5847 5846 5845 5844 5844 5843 5842 5841 5841 5841 5840 5840 5840 5839 5839 5838 5837 5837 5837 5837 5836 5836 5836 5835 5834 5834 5833 5833 5833 5833 5832 5832 5832 5832 5832 5832 5832 5832 5832 5833 5833 5833 5833 5833 5834 5834 5835 5835 5835 5835 5836 5836 5836 5837 5837 5838
5853 5853 5854 5855 5855 5856 5856 5856 5856 5856 5856 5856 5856 5856 5856 5855 5855 5854 5853 5853 5853 5852 5852 5851 5850 5850 5849 5848 5847 5846 5845 5844 5844 5843 5842 5841 5841 5840 5840 5840 5839 5839 5839 5838 5838 5837 5836 5836 5836 5836 5836 5835 5835 5834 5834 5833 5833 5833 5832 5832 5832 5832 5832 5832 5832 5832 5832 5833 5833 5833 5833 5833 5833 5834 5834 5835 5835 5835 5835 5836 5836 5836 5837 5837 5837
5852 5852 5853 5853 5854 5854 5854 5855 5855 5855 5855 5855 5855 5855 5854 5854 5853 5853 5852 5852 5851 5851 5850 5850 5849 5848 5848 5847 5846 5845 5844 5843 5843 5842 5842 5841 5840 5840 5839 5839 5838 5838 5838 5838 5837 5836 5836 5836 5836 5836 5835 5835 5834 5834 5834 5833 5833 5832 5832 5832 5832 5832 5832 5832 5832 5832 5832 5833 5833 5833 5833 5833 5834 5834 5834 5835 5835 5835 5836 5836 5836 5836 5837 5837 5837
5850 5851 5851 5852 5852 5852 5853 5853 5853 5854 5854 5854 5854 5853 5853 5853 5852 5852 5851 5850 5850 5850 5849 5849 5848 5847 5847 5846 5845 5844 5844 5843 5842 5842 5841 5840 5840 5839 5839 5838 5838 5838 5837 5837 5836 5836 5835 5835 5835 5835 5835 5834 5834 5834 5833 5833 5833 5832 5832 5832 5832 5832 5832 5832 5832 5832 5832 5833 5833 5833 5833 5834 5834 5834 5835 5835 5835 5835 5835 5836 5836 5836 5837 5837 5837
5848 5849 5850 5850 5850 5851 5852 5852 5852 5852 5852 5852 5852 5852 5852 5851 5851 5850 5850 5849 5849 5848 5848 5847 5847 5846 5846 5845 5844 5843 5843 5842 5842 5841 5841 5840 5839 5838 5838 5837 5837 5837 5837 5836 5836 5835 5835 5835 5834 5834 5834 5834 5833 5833 5833 5833 5833 5832 5832 5832 5832 5832 5832 5832 5832 5832 5832 5833 5833 5833 5834 5834 5834 5834 5835 5835 5835 5835 5835 5836 5836 5836 5837 5837 5837
5846 5847 5848 5848 5849 5850 5850 5850 5851 5851 5851 5851 5850 5850 5850 5850 5849 5849 5848 5847 5847 5847 5846 5846 5846 5845 5844 5844 5843 5842 5842 5841 5841 5840 5840 5839 5839 5838 5837 5837 5837 5836 5836 5836 5835 5835 5834 5834 5834 5834 5833 5833 5833 5833 5833 5833 5833 5832 5832 5832 5832 5832 5832 5832 5832 5832 5833 5833 5833 5833 5834 5834 5834 5834 5835 5835 5835 5835 5835 5835 5836 5836 5836 5837 5837
5845 5845 5846 5847 5848 5848 5849 5849 5849 5849 5849 5849 5849 5849 5849 5848 5848 5847 5846 5846 5845 5845 5845 5845 5844 5843 5843 5843 5841 5841 5840 5840 5840 5840 5839 5839 5838 5837 5837 5836 5836 5836 5835 5835 5834 5834 5834 5834 5833 5833 5833 5833 5833 5832 5832 5832 5832 5832 5832 5832 5832 5832 5832 5832 5832 5832 5833 5833 5833 5833 5834 5834 5834 5834 5834 5834 5835 5835 5835 5835 5835 5836 5836 5836 5837
5843 5844 5845 5846 5847 5847 5848 5848 5848 5847 5847 5847 5847 5847 5847 5847 5846 5845 5845 5844 5844 5844 5844 5843 5843 5842 5842 5841 5840 5840 5840 5839 5839 5839 5838 5838 5837 5837 5836 5836 5835 5835 5834 5834 5834 5833 5833 5833 5833 5833 5833 5832 5832 5832 5832 5832 5832 5832 5832 5832 5832 5832 5832 5832 5832 5832 5832 5833 5833 5833 5834 5834 5834 5834 5834 5834 5834 5834 5835 5835 5835 5835 5836 5836 5836
5842 5842 5844 5845 5845 5846 5846 5846 5846 5846 5845 5845 5845 5845 5845 5845 5844 5844 5843 5842 5842 5842 5842 5842 5841 5841 5840 5840 5840 5839 5839 5838 5838 5838 5838 5837 5837 5836 5836 5835 5835 5834 5834 5833 5833 5833 5832 5833 5833 5832 5832 5832 5832 5832 5832 5832 5832 5832 5832 5832 5831 5832 5832 5832 5832 5832 5832 5832 5833 5833 5834 5834 5834 5834 5834 5834 5834 5834 5834 5835 5835 5835 5835 5836 5836
5840 5841 5842 5843 5844 5845 5845 5844 5844 5844 5843 5843 5843 5843 5843 5843 5842 5842 5841 5841 5840 5840 5840 5840 5840 5839 5839 5839 5839 5838 5838 5838 5837 5837 5837 5836 5836 5836 5835 5835 5834 5834 5833 5833 5832 5832 5832 5832 5832 5832 5832 5831 5831 5831 5831 5831 5831 5831 5831 5831 5831 5831 5831 5831 5832 5832 5832 5832 5833 5833 5833 5833 5833 5833 5833 5833 5834 5834 5834 5834 5835 5835 5835 5835 5835
5839 5840 5841 5842 5842 5843 5842 5842 5842 5842 5841 5841 5841 5841 5841 5841 5840 5840 5839 5839 5839 5839 5839 5839 5838 5838 5838 5838 5837 5837 5837 5836 5836 5836 5836 5835 5835 5835 5835 5834 5833 5833 5832 5832 5831 5831 5831 5831 5831 5832 5832 5832 5831 5831 5831 5831 5831 5831 5831 5831 5830 5831 5831 5831 5831 5831 5832 5832 5832 5833 5833 5833 5833 5833 5833 5833 5833 5833 5834 5834 5834 5834 5835 5835 5835
5837 5839 5840 5840 5840 5840 5840 5840 5839 5839 5839 5839 5839 5839 5839 5839 5838 5838 5838 5837 5837 5837 5837 5837 5837 5837 5837 5836 5836 5836 5836 5835 5835 5835 5834 5835 5835 5835 5834 5834 5833 5832 5831 5831 5831 5830 5830 5830 5830 5831 5831 5831 5831 5831 5831 5831 5831 5830 5830 5830 5830 5830 5830 5830 5830 5831 5831 5832 5832 5832 5832 5832 5832 5833 5833 5833 5833 5833 5833 5833 5834 5834 5834 5834 5834
5836 5837 5837 5838 5838 5838 5837 5837 5837 5836 5836 5836 5836 5836 5836 5836 5836 5836 5836 5836 5835 5836 5836 5836 5836 5836 5835 5835 5835 5835 5834 5834 5833 5833 5833 5833 5834 5834 5833 5833 5832 5831 5830 5830 5830 5829 5829 5829 5830 5830 5831 5831 5831 5831 5831 5831 5830 5830 5829 5829 5829 5829 5829 5830 5830 5830 5830 5831 5831 5831 5831 5832 5832 5832 5832 5832 5832 5833 5833 5833 5833 5833 5833 5834 5834
5834 5835 5835 5835 5836 5835 5835 5835 5834 5833 5833 5833 5833 5833 5833 5834 5834 5834 5834 5834 5834 5834 5834 5835 5834 5834 5834 5833 5833 5833 5833 5832 5832 5832 5832 5832 5832 5832 5832 5832 5831 5830 5830 5829 5829 5828 5828 5828 5829 5829 5830 5831 5831 5831 5831 5830 5829 5829 5829 5828 5829 5829 5829 5829 5829 5829 5830 5830 5830 5830 5830 5830 5831 5831 5831 5832 5832 5832 5832 5832 5832 5833 5833 5833 5833
5832 5833 5833 5833 5833 5832 5832 5832 5831 5830 5830 5830 5830 5831 5831 5831 5832 5832 5832 5832 5832 5833 5833 5833 5833 5833 5832 5832 5832 5831 5831 5831 5831 5831 5831 5831 5831 5831 5831 5830 5830 5829 5829 5828 5828 5828 5827 5827 5827 5828 5829 5830 5830 5830 5830 5830 5829 5828 5828 5828 5828 5828 5828 5828 5828 5829 5829 5829 5829 5829 5829 5829 5830 5830 5830 5831 5831 5831 5831 5832 5832 5832 5832 5832 5833
5830 5830 5831 5830 5830 5829 5829 5829 5828 5827 5827 5827 5828 5829 5829 5829 5830 5831 5831 5831 5831 5831 5831 5831 5831 5831 5831 5830 5830 5830 5830 5830 5830 5830 5830 5830 5830 5830 5829 5829 5829 5829 5828 5828 5827 5827 5826 5826 5826 5827 5828 5829 5829 5829 5829 5829 5829 5828 5828 5828 5828 5828 5828 5827 5827 5828 5828 5828 5828 5828 5828 5828 5828 5829 5829 5829 5830 5830 5830 5831 5831 5831 5832 5832 5832
5828 5828 5828 5828 5827 5826 5826 5826 5825 5824 5824 5825 5826 5827 5827 5828 5828 5829 5829 5830 5830 5830 5830 5830 5830 5829 5829 5829 5828 5828 5829 5829 5829 5829 5829 5829 5828 5828 5828 5828 5828 5828 5827 5827 5827 5826 5825 5825 5825 5826 5827 5828 5828 5829 5829 5829 5829 5828 5828 5827 5827 5827 5827 5826 5827 5827 5827 5827 5827 5827 5827 5827 5827 5827 5828 5828 5829 5829 5829 5830 5830 5830 5831 5831 5832
5826 5827 5826 5825 5824 5823 5823 5822 5820 5820 5822 5823 5824 5825 5825 5826 5827 5827 5828 5828 5828 5828 5828 5829 5828 5829 5828 5827 5827 5826 5827 5828 5827 5828 5827 5827 5827 5827 5827 5827 5827 5827 5826 5826 5826 5826 5825 5824 5824 5824 5825 5826 5828 5828 5828 5828 5828 5827 5827 5827 5826 5826 5826 5825 5826 5826 5825 5825 5826 5826 5826 5826 5826 5826 5827 5827 5827 5828 5828 5829 5829 5830 5830 5831 5831
5825 5824 5823 5822 5820 5819 5819 5818 5817 5818 5819 5819 5821 5822 5823 5824 5825 5825 5826 5827 5827 5827 5827 5827 5827 5828 5827 5826 5825 5825 5826 5826 5826 5826 5826 5825 5825 5825 5825 5825 5825 5825 5825 5825 5825 5825 5825 5824 5824 5824 5824 5825 5827 5827 5827 5827 5826 5826 5826 5826 5826 5825 5825 5824 5824 5825 5824 5824 5824 5824 5824 5825 5825 5825 5825 5826 5826 5827 5827 5828 5828 5829 5829 5830 5831
5822 5821 5820 5818 5816 5816 5817 5816 5815 5816 5816 5815 5817 5819 5821 5822 5823 5824 5824 5825 5826 5826 5826 5826 5826 5826 5825 5824 5822 5822 5824 5825 5824 5824 5824 5824 5824 5824 5824 5824 5824 5824 5824 5824 5824 5824 5824 5824 5824 5823 5823 5824 5825 5825 5826 5826 5825 5825 5825 5825 5825 5824 5824 5823 5822 5823 5823 5823 5823 5823 5823 5823 5823 5824 5824 5825 5825 5825 5826 5827 5827 5828 5828 5829 5830
5819 5819 5818 5816 5814 5815 5816 5816 5816 5817 5817 5816 5815 5816 5819 5820 5821 5822 5823 5823 5824 5824 5824 5825 5824 5824 5823 5823 5821 5820 5821 5821 5822 5822 5822 5823 5823 5823 5822 5823 5823 5823 5823 5823 5824 5824 5824 5824 5823 5823 5823 5823 5823 5824 5824 5824 5824 5824 5824 5825 5824 5824 5823 5822 5821 5821 5821 5821 5822 5822 5822 5822 5822 5823 5823 5824 5824 5824 5825 5825 5826 5827 5827 5828 5828
5817 5818 5817 5815 5814 5815 5816 5816 5817 5818 5819 5820 5817 5816 5816 5817 5818 5819 5820 5821 5822 5822 5823 5823 5823 5823 5822 5821 5820 5819 5819 5819 5819 5820 5820 5821 5821 5821 5821 5821 5822 5822 5822 5822 5823 5823 5823 5823 5823 5823 5822 5822 5822 5823 5823 5823 5823 5823 5824 5823 5823 5823 5823 5821 5820 5820 5819 5820 5820 5821 5821 5821 5821 5822 5822 5822 5822 5823 5823 5824 5825 5825 5826 5826 5827
5816 5817 5816 5813 5812 5815 5817 5817 5818 5818 5817 5818 5818 5817 5815 5815 5815 5816 5817 5819 5820 5821 5821 5821 5821 5821 5820 5819 5818 5818 5818 5817 5817 5819 5819 5820 5820 5820 5820 5820 5821 5821 5821 5822 5822 5823 5823 5823 5823 5822 5822 5822 5822 5822 5822 5823 5823 5823 5823 5822 5822 5822 5822 5822 5820 5818 5818 5819 5819 5820 5819 5819 5820 5820 5820 5821 5821 5821 5822 5823 5823 5824 5824 5825 5826
5814 5814 5813 5811 5810 5814 5817 5816 5816 5816 5816 5816 5816 5817 5816 5814 5813 5814 5816 5818 5819 5820 5819 5819 5819 5819 5818 5817 5817 5818 5817 5817 5817 5817 5818 5818 5818 5819 5819 5819 5820 5820 5820 5821 5821 5822 5822 5822 5822 5822 5822 5821 5821 5821 5822 5822 5823 5823 5822 5822 5822 5822 5822 5822 5819 5816 5817 5818 5818 5818 5818 5818 5819 5819 5819 5820 5820 5820 5820 5821 5822 5822 5823 5824 5824
5812 5812 5811 5810 5809 5811 5812 5812 5813 5813 5814 5815 5815 5816 5816 5815 5813 5813 5815 5817 5817 5817 5817 5817 5817 5816 5817 5816 5816 5817 5816 5816 5816 5815 5815 5816 5816 5817 5818 5818 5819 5819 5819 5820 5820 5821 5822 5822 5822 5822 5821 5821 5821 5821 5822 5822 5823 5823 5822 5821 5821 5822 5822 5821 5817 5814 5816 5818 5816 5816 5817 5816 5817 5817 5818 5818 5818 5819 5819 5820 5820 5821 5822 5822 5823
5810 5809 5809 5808 5808 5809 5808 5808 5809 5810 5811 5813 5813 5814 5815 5815 5812 5812 5813 5814 5815 5815 5815 5815 5814 5814 5815 5816 5816 5816 5816 5815 5815 5814 5814 5814 5815 5816 5817 5817 5818 5818 5819 5819 5820 5820 5821 5821 5821 5821 5821 5821 5821 5822 5822 5822 5823 5823 5823 5822 5822 5822 5821 5819 5815 5814 5817 5818 5815 5814 5815 5814 5815 5815 5815 5816 5816 5817 5818 5818 5819 5819 5820 5821 5821
5806 5806 5806 5805 5806 5805 5805 5806 5806 5807 5809 5812 5813 5814 5814 5814 5812 5811 5811 5812 5813 5813 5813 5813 5813 5813 5814 5814 5815 5816 5817 5817 5815 5814 5814 5814 5815 5815 5816 5816 5817 5817 5818 5818 5819 5819 5820 5820 5821 5821 5821 5821 5821 5822 5822 5822 5822 5822 5822 5822 5822 5820 5820 5817 5815 5816 5816 5816 5813 5811 5813 5813 5813 5813 5813 5814 5814 5816 5817 5817 5817 5818 5819 5820 5820
5804 5804 5803 5803 5802 5802 5802 5804 5805 5805 5807 5810 5813 5813 5813 5813 5812 5812 5811 5810 5810 5811 5812 5813 5813 5813 5812 5813 5814 5815 5817 5817 5815 5814 5814 5813 5813 5814 5814 5815 5815 5816 5817 5817 5818 5819 5819 5820 5820 5820 5821 5821 5821 5822 5822 5822 5822 5822 5822 5821 5820 5819 5819 5817 5816 5815 5814 5813 5812 5810 5812 5812 5812 5812 5812 5812 5813 5814 5815 5816 5816 5817 5818 5818 5819
5801 5801 5801 5800 5800 5799 5798 5801 5803 5806 5807 5809 5811 5813 5813 5811 5810 5811 5811 5810 5809 5809 5811 5812 5812 5811 5810 5811 5813 5813 5814 5814 5814 5813 5812 5812 5812 5813 5813 5813 5814 5815 5815 5816 5817 5818 5818 5819 5820 5820 5820 5821 5821 5821 5821 5821 5821 5821 5821 5821 5819 5819 5818 5817 5816 5813 5812 5813 5812 5810 5811 5811 5811 5811 5811 5811 5812 5812 5814 5814 5815 5816 5817 5817 5818
5799 5798 5798 5798 5798 5796 5795 5798 5802 5805 5806 5807 5809 5811 5811 5810 5809 5808 5809 5809 5809 5809 5810 5810 5811 5810 5809 5809 5811 5812 5812 5812 5811 5811 5811 5811 5811 5811 5812 5812 5813 5814 5814 5815 5816 5817 5817 5818 5819 5820 5820 5820 5821 5821 5821 5821 5821 5820 5820 5820 5819 5818 5818 5817 5814 5813 5812 5812 5811 5811 5810 5810 5810 5810 5810 5810 5810 5811 5812 5813 5814 5814 5815 5816 5817
5796 5795 5795 5795 5795 5795 5795 5797 5801 5803 5804 5805 5806 5808 5809 5808 5808 5807 5807 5809 5809 5808 5808 5809 5810 5809 5808 5808 5809 5810 5810 5810 5809 5810 5810 5810 5810 5811 5811 5811 5812 5813 5813 5814 5815 5816 5817 5818 5818 5819 5820 5820 5820 5820 5821 5821 5820 5820 5819 5818 5818 5817 5816 5815 5813 5813 5812 5811 5811 5810 5810 5809 5809 5809 5809 5809 5809 5810 5810 5811 5812 5813 5814 5815 5816
5794 5793 5793 5793 5793 5794 5796 5797 5799 5800 5802 5803 5805 5807 5807 5806 5806 5806 5806 5808 5808 5807 5807 5807 5808 5809 5808 5807 5808 5808 5808 5808 5808 5808 5809 5809 5810 5810 5810 5810 5811 5812 5813 5813 5814 5815 5816 5817 5818 5818 5819 5819 5820 5820 5820 5820 5819 5818 5817 5817 5816 5815 5815 5813 5812 5813 5811 5811 5811 5810 5809 5809 5808 5808 5808 5807 5807 5808 5809 5810 5811 5811 5813 5814 5815
5792 5792 5791 5791 5792 5794 5796 5797 5798 5798 5800 5802 5804 5806 5806 5805 5805 5804 5805 5806 5806 5806 5806 5806 5807 5808 5808 5807 5807 5808 5807 5807 5807 5807 5808 5808 5809 5809 5809 5809 5810 5811 5812 5813 5814 5814 5815 5816 5817 5818 5818 5819 5819 5819 5819 5819 5818 5817 5816 5816 5815 5814 5814 5813 5812 5812 5811 5811 5811 5810 5809 5808 5807 5807 5807 5806 5806 5807 5808 5809 5810 5811 5812 5813 5814
5790 5790 5790 5790 5791 5793 5794 5796 5797 5797 5799 5801 5804 5805 5806 5806 5804 5803 5804 5805 5804 5805 5804 5805 5806 5807 5807 5806 5806 5806 5806 5806 5806 5807 5807 5808 5808 5808 5808 5808 5810 5810 5811 5812 5813 5813 5814 5815 5816 5817 5817 5818 5818 5818 5818 5818 5817 5816 5816 5815 5814 5813 5814 5813 5812 5813 5812 5812 5811 5810 5809 5807 5806 5807 5807 5807 5807 5808 5809 5808 5810 5811 5812 5813 5813
5788 5788 5789 5789 5790 5792 5794 5795 5796 5796 5798 5801 5802 5803 5804 5805 5802 5801 5802 5802 5802 5802 5802 5802 5803 5804 5805 5805 5804 5805 5805 5805 5806 5806 5806 5807 5807 5807 5808 5808 5809 5810 5810 5811 5812 5813 5813 5815 5815 5816 5817 5817 5817 5817 5817 5817 5816 5816 5815 5815 5813 5813 5813 5813 5812 5813 5813 5812 5812 5811 5809 5807 5806 5807 5807 5807 5808 5809 5810 5809 5810 5811 5812 5812 5813
5786 5787 5787 5788 5789 5791 5792 5792 5793 5795 5797 5799 5800 5801 5801 5800 5799 5799 5799 5799 5799 5799 5799 5799 5800 5802 5803 5803 5803 5803 5804 5804 5804 5805 5805 5806 5806 5806 5807 5808 5808 5809 5810 5811 5811 5812 5813 5814 5814 5815 5816 5816 5816 5816 5816 5816 5816 5816 5815 5814 5814 5813 5812 5813 5812 5812 5812 5812 5812 5811 5810 5808 5807 5807 5808 5808 5809 5810 5810 5810 5810 5811 5811 5811 5812
5785 5785 5786 5787 5787 5788 5789 5789 5791 5794 5796 5797 5798 5798 5798 5797 5797 5796 5796 5796 5796 5797 5797 5797 5798 5800 5801 5801 5801 5802 5802 5803 5803 5804 5804 5805 5805 5805 5806 5807 5808 5808 5809 5810 5811 5811 5812 5813 5813 5814 5814 5815 5815 5815 5815 5815 5815 5815 5815 5814 5814 5813 5812 5812 5812 5812 5811 5812 5812 5811 5810 5809 5808 5808 5808 5808 5809 5810 5810 5811 5810 5810 5811 5811 5812
5783 5784 5784 5785 5786 5787 5788 5788 5790 5792 5795 5795 5795 5795 5795 5795 5794 5794 5794 5793 5794 5794 5795 5797 5797 5798 5799 5799 5800 5800 5801 5801 5802 5803 5803 5803 5804 5804 5805 5806 5807 5808 5809 5809 5810 5811 5811 5812 5812 5813 5814 5814 5814 5814 5814 5814 5814 5815 5814 5814 5813 5813 5812 5812 5812 5812 5811 5812 5812 5812 5810 5809 5808 5808 5808 5809 5809 5810 5810 5811 5811 5811 5811 5811 5811
5782 5783 5783 5783 5784 5786 5787 5787 5787 5789 5791 5791 5791 5793 5793 5793 5792 5791 5791 5791 5791 5793 5794 5795 5796 5796 5797 5798 5798 5799 5799 5800 5801 5801 5802 5802 5803 5803 5804 5805 5806 5807 5808 5808 5809 5810 5810 5811 5812 5812 5813 5813 5813 5813 5813 5813 5814 5814 5814 5813 5812 5812 5812 5811 5812 5811 5811 5812 5812 5812 5811 5810 5809 5808 5808 5809 5809 5810 5810 5811 5811 5811 5811 5811 5810
5780 5781 5782 5782 5783 5785 5785 5785 5783 5784 5787 5787 5787 5789 5790 5789 5789 5788 5789 5789 5790 5791 5792 5792 5793 5794 5795 5796 5797 5797 5798 5798 5799 5800 5800 5801 5802 5802 5803 5804 5805 5806 5807 5807 5808 5809 5809 5810 5811 5811 5812 5812 5812 5812 5812 5812 5813 5813 5813 5812 5811 5811 5811 5811 5811 5810 5811 5812 5812 5812 5811 5810 5810 5809 5808 5808 5809 5809 5810 5810 5811 5811 5811 5811 5810
5778 5779 5779 5779 5779 5781 5781 5780 5780 5781 5783 5784 5784 5785 5786 5786 5786 5785 5786 5787 5788 5789 5789 5789 5791 5793 5794 5794 5795 5796 5796 5797 5798 5798 5799 5800 5801 5801 5802 5803 5804 5805 5805 5806 5807 5808 5808 5809 5810 5810 5811 5811 5811 5811 5811 5811 5812 5812 5812 5811 5810 5810 5810 5810 5810 5810 5810 5811 5811 5811 5811 5810 5810 5809 5808 5808 5808 5809 5809 5809 5810 5810 5810 5810 5810
5775 5775 5775 5774 5774 5775 5776 5777 5779 5780 5780 5781 5782 5782 5783 5783 5783 5783 5784 5785 5786 5787 5787 5788 5789 5791 5792 5793 5794 5795 5796 5796 5797 5797 5798 5798 5799 5800 5801 5802 5802 5803 5804 5805 5806 5807 5808 5808 5809 5809 5810 5810 5810 5810 5810 5810 5810 5810 5811 5810 5810 5810 5809 5809 5809 5809 5809 5810 5810 5810 5810 5810 5809 5809 5809 5809 5809 5809 5809 5809 5809 5809 5809 5810 5810
5769 5769 5769 5769 5770 5772 5775 5778 5779 5779 5777 5778 5779 5779 5780 5780 5780 5781 5782 5782 5783 5785 5786 5787 5789 5789 5790 5792 5793 5794 5795 5795 5796 5796 5796 5797 5798 5799 5800 5800 5801 5802 5803 5804 5805 5806 5806 5807 5808 5808 5808 5808 5808 5808 5809 5809 5809 5809 5810 5809 5809 5809 5809 5808 5808 5808 5808 5808 5809 5809 5809 5809 5808 5808 5809 5809 5809 5809 5808 5808 5808 5809 5809 5809 5809
5761 5762 5764 5767 5769 5772 5775 5777 5777 5777 5776 5776 5776 5776 5777 5778 5778 5779 5781 5780 5781 5783 5784 5786 5787 5787 5788 5790 5792 5793 5794 5794 5794 5794 5795 5796 5797 5797 5798 5799 5799 5800 5801 5802 5803 5804 5805 5806 5806 5807 5807 5807 5807 5807 5808 5808 5808 5809 5809 5808 5808 5808 5808 5807 5806 5807 5807 5807 5808 5808 5808 5808 5808 5808 5808 5808 5808 5808 5808 5808 5808 5808 5808 5808 5808
5755 5758 5762 5767 5769 5769 5770 5771 5772 5773 5773 5773 5772 5774 5776 5776 5776 5777 5778 5779 5779 5780 5781 5783 5785 5785 5787 5789 5790 5792 5792 5792 5792 5793 5794 5794 5795 5796 5796 5797 5798 5799 5800 5801 5802 5803 5803 5804 5805 5805 5806 5806 5806 5806 5806 5807 5807 5808 5808 5807 5807 5807 5807 5806 5805 5806 5806 5807 5807 5807 5807 5807 5807 5807 5807 5808 5808 5808 5808 5808 5808 5808 5807 5807 5807
5754 5759 5762 5767 5767 5765 5765 5767 5768 5769 5769 5769 5770 5773 5774 5774 5774 5775 5776 5776 5777 5778 5779 5781 5783 5784 5785 5787 5789 5790 5790 5790 5791 5791 5792 5793 5794 5794 5795 5796 5796 5797 5798 5799 5800 5801 5802 5803 5803 5804 5804 5805 5805 5805 5805 5806 5806 5806 5806 5806 5806 5806 5806 5806 5805 5805 5805 5805 5806 5806 5806 5806 5806 5806 5806 5806 5807 5807 5807 5807 5807 5807 5806 5806 5806